This is the latest recevied weather packets stored in our database for station/object OE2ATN. If no packets are shown the sender has not sent any weather packets the latest 10 day(s).
| Time | Temp. | Humidity | Pressure | Rain* | Wind** | Luminosity | Snow |
|---|---|---|---|---|---|---|---|
| 1778112035 | 8.89° C | 63% | 1017.8 hPa | 0 mm | - | - | - |
| 1778111735 | 8.89° C | 68% | 1017.8 hPa | 0 mm | - | - | - |
| 1778111435 | 9.44° C | 69% | 1017.9 hPa | 0 mm | - | - | - |
| 1778111134 | 9.44° C | 73% | 1017.9 hPa | 0 mm | - | - | - |
| 1778110834 | 9.44° C | 73% | 1017.8 hPa | 0 mm | - | - | - |
| 1778110535 | 9.44° C | 72% | 1017.8 hPa | 0 mm | - | - | - |
| 1778110234 | 9.44° C | 72% | 1017.8 hPa | 0 mm | - | - | - |
| 1778109935 | 9.44° C | 72% | 1017.8 hPa | 0 mm | - | - | - |
| 1778109634 | 9.44° C | 72% | 1017.9 hPa | 0 mm | - | - | - |
| 1778109335 | 9.44° C | 68% | 1017.9 hPa | 0 mm | - | - | - |
| 1778109035 | 10° C | 72% | 1017.9 hPa | 0 mm | - | - | - |
| 1778108734 | 10° C | 72% | 1017.9 hPa | 0 mm | - | - | - |
| 1778108434 | 10° C | 72% | 1017.8 hPa | 0 mm | - | - | - |
| 1778108135 | 9.44° C | 70% | 1017.8 hPa | 0 mm | - | - | - |
| 1778107834 | 9.44° C | 66% | 1017.8 hPa | 0 mm | - | - | - |
| 1778107534 | 9.44° C | 72% | 1017.8 hPa | 0 mm | - | - | - |
| 1778107235 | 10° C | 71% | 1017.7 hPa | 0 mm | - | - | - |
| 1778106934 | 10° C | 72% | 1017.8 hPa | 0 mm | - | - | - |
| 1778106634 | 10° C | 73% | 1017.7 hPa | 0 mm | - | - | - |
| 1778106333 | 10° C | 73% | 1017.7 hPa | 0 mm | - | - | - |
| 1778106035 | 10° C | 72% | 1017.6 hPa | 0 mm | - | - | - |
| 1778105734 | 10° C | 70% | 1017.5 hPa | 0 mm | - | - | - |
| 1778105434 | 10° C | 72% | 1017.4 hPa | 0 mm | - | - | - |
| 1778105134 | 10° C | 72% | 1017.4 hPa | 0 mm | - | - | - |
| 1778104834 | 10.56° C | 72% | 1017.2 hPa | 0 mm | - | - | - |
* Rain latest hour (hover to see other rain measurements)
** Current wind speed in m/s (hover to see current wind gust speed)